Location: Plzen
(49.7500°N, 13.3670°E)
Time: 20:38:56
(UTC+02:00)

ISS - Visible Passes

Search period start: 16 July 2018 00:00
Search period end: 26 July 2018 00:00
Orbit: 402 x 408 km, 51.6° (Epoch: 17 July)

Date Brightness Start Highest point End Pass type
(mag) Time Alt. Az. Time Alt. Az. Time Alt. Az.
16 Jul -2.7 00:59:18 32° E 00:59:18 32° E 01:01:22 10° ENE visible
16 Jul -3.4 02:31:55 14° W 02:34:38 64° N 02:37:56 10° ENE visible
16 Jul -3.6 04:08:02 10° WNW 04:11:20 74° NNE 04:14:38 10° E visible
17 Jul -1.5 00:08:35 14° E 00:08:35 14° E 00:09:11 10° E visible
17 Jul -3.7 01:41:12 33° W 01:42:31 76° NNW 01:45:50 10° ENE visible
17 Jul -3.3 03:15:55 10° WNW 03:19:12 63° N 03:22:29 10° E visible
18 Jul -4.0 00:50:12 75° SW 00:50:25 83° SSE 00:53:43 10° ENE visible
18 Jul -3.3 02:23:46 10° W 02:27:03 59° N 02:30:19 10° E visible
18 Jul -3.9 04:00:21 10° WNW 04:03:39 77° SSW 04:06:57 10° ESE visible
18 Jul -3.9 23:58:10 57° S 23:58:21 59° SSE 00:01:36 10° ENE visible
19 Jul -3.4 01:31:36 10° W 01:34:52 62° N 01:38:09 10° ENE visible
19 Jul -3.8 03:08:14 10° WNW 03:11:33 80° NNE 03:14:51 10° ESE visible
19 Jul -3.4 23:03:14 10° SW 23:06:19 38° SSE 23:09:24 10° E visible
20 Jul -3.6 00:39:25 10° W 00:42:43 71° N 00:46:00 10° ENE visible
20 Jul -3.5 02:16:06 10° WNW 02:19:23 66° N 02:22:40 10° E visible
20 Jul -3.6 03:52:40 10° WNW 03:55:50 45° SSW 03:59:00 10° SE visible
20 Jul -2.8 22:11:35 10° SSW 22:14:20 25° SE 22:17:05 10° E visible
20 Jul -3.9 23:47:16 10° WSW 23:50:33 88° NW 23:53:51 10° ENE visible
21 Jul -3.3 01:23:56 10° WNW 01:27:12 60° N 01:30:28 10° E visible
21 Jul -4.0 03:00:29 10° WNW 03:03:46 68° SSW 03:07:03 10° ESE visible
21 Jul -2.2 04:37:41 10° W 04:39:49 16° SW 04:41:56 10° S visible
21 Jul -3.9 22:55:10 10° WSW 22:58:25 68° SSE 23:01:42 10° ENE visible
22 Jul -3.3 00:31:44 10° W 00:35:00 60° N 00:38:16 10° ENE visible
22 Jul -3.9 02:08:20 10° WNW 02:11:39 88° NNE 02:14:57 10° ESE visible
22 Jul -2.8 03:45:06 10° W 03:47:52 25° SW 03:50:39 10° SSE visible
22 Jul -3.5 22:03:11 10° SW 22:06:20 45° SSE 22:09:30 10° ENE visible
22 Jul -3.5 23:39:31 10° W 23:42:47 66° N 23:46:04 10° ENE visible
23 Jul -3.6 01:16:10 10° WNW 01:19:28 70° NNE 01:20:45 33° E visible
23 Jul -1.5 02:52:45 10° W 02:53:15 13° W 02:53:15 13° W visible
23 Jul -3.8 22:47:18 10° WSW 22:50:35 81° NNW 22:53:52 10° ENE visible
24 Jul -3.4 00:23:59 10° WNW 00:27:14 61° N 00:29:01 24° E visible
24 Jul -1.8 02:00:31 10° WNW 02:01:37 19° W 02:01:37 19° W visible
24 Jul -3.9 21:55:08 10° WSW 21:58:24 77° SSE 22:01:42 10° ENE visible
24 Jul -3.3 23:31:45 10° W 23:35:00 59° N 23:38:00 12° E visible
25 Jul -3.0 01:08:19 10° WNW 01:10:37 41° WNW 01:10:37 41° WNW visible
25 Jul -3.4 22:39:29 10° W 22:42:45 63° N 22:46:01 10° ENE visible
